contact:dominique.lefevre@mio.osupytheas.fr, maurice.libes@osupytheas.fr, didier.mallarino@osupytheas.fr
Project:EMSO http://www.emso-fr.org/EMSO-France
Depth: 2436.0 m
Title:EMSO Ligure Ouest : Data MII capteur MICROCAT
DateTime_Computer,Latitude,Longitude,Temperature,Conductivity,Pressure,DateTime_Instrument
DateTime_Computer,Latitude,Longitude,degC,S m-1,dbar,DateTime_Instrument
2020-03-02T00:01:45Z,42.805,6.029,13.2968,4.59970,2470.04,2020-3-02T02:02:21Z
2020-03-02T00:04:48Z,42.805,6.029,13.2964,4.59968,2470.017,2020-3-02T02:05:24Z
2020-03-02T00:07:51Z,42.805,6.029,13.2967,4.59968,2470.063,2020-3-02T02:08:28Z
2020-03-02T00:10:55Z,42.805,6.029,13.2964,4.59968,2470.063,2020-3-02T02:11:31Z
2020-03-02T00:13:58Z,42.805,6.029,13.2970,4.59968,2470.053,2020-3-02T02:14:34Z
2020-03-02T00:17:01Z,42.805,6.029,13.2968,4.59969,2470.04,2020-3-02T02:17:37Z
2020-03-02T00:20:04Z,42.805,6.029,13.2970,4.59970,2470.017,2020-3-02T02:20:40Z
2020-03-02T00:23:07Z,42.805,6.029,13.2962,4.59971,2470.04,2020-3-02T02:23:44Z
2020-03-02T00:26:11Z,42.805,6.029,13.2967,4.59971,2470.053,2020-3-02T02:26:47Z
2020-03-02T00:29:14Z,42.805,6.029,13.2971,4.59969,2470.04,2020-3-02T02:29:50Z
2020-03-02T00:32:17Z,42.805,6.029,13.2968,4.59968,2470.053,2020-3-02T02:32:53Z
2020-03-02T00:35:20Z,42.805,6.029,13.2973,4.59969,2470.017,2020-3-02T02:35:56Z
2020-03-02T00:38:23Z,42.805,6.029,13.2977,4.59971,2470.04,2020-3-02T02:39:00Z
2020-03-02T00:41:27Z,42.805,6.029,13.2969,4.59976,2470.053,2020-3-02T02:42:03Z
2020-03-02T00:44:30Z,42.805,6.029,13.2979,4.59971,2470.03,2020-3-02T02:45:06Z
2020-03-02T00:47:33Z,42.805,6.029,13.2972,4.59971,2470.017,2020-3-02T02:48:09Z
2020-03-02T00:50:36Z,42.805,6.029,13.2978,4.59983,2470.017,2020-3-02T02:51:12Z
2020-03-02T00:53:40Z,42.805,6.029,13.2973,4.59980,2470.04,2020-3-02T02:54:16Z
2020-03-02T00:56:43Z,42.805,6.029,13.3000,4.59998,2470.007,2020-3-02T02:57:19Z
2020-03-02T00:59:46Z,42.805,6.029,13.2993,4.60001,2470.04,2020-3-02T03:00:23Z
2020-03-02T01:02:50Z,42.805,6.029,13.2990,4.60016,2470.04,2020-3-02T03:03:26Z
2020-03-02T01:05:53Z,42.805,6.029,13.2990,4.59996,2470.017,2020-3-02T03:06:29Z
2020-03-02T01:08:56Z,42.805,6.029,13.2990,4.59996,2470.03,2020-3-02T03:09:32Z
2020-03-02T01:11:59Z,42.805,6.029,13.2993,4.59991,2470.017,2020-3-02T03:12:35Z
2020-03-02T01:15:02Z,42.805,6.029,13.2996,4.60012,2469.993,2020-3-02T03:15:38Z
2020-03-02T01:18:06Z,42.805,6.029,13.3004,4.60033,2469.993,2020-3-02T03:18:42Z
2020-03-02T01:21:09Z,42.805,6.029,13.2997,4.60041,2470.03,2020-3-02T03:21:45Z
2020-03-02T01:24:12Z,42.805,6.029,13.2998,4.60037,2470.007,2020-3-02T03:24:48Z
2020-03-02T01:27:15Z,42.805,6.029,13.2998,4.60031,2470.007,2020-3-02T03:27:51Z
2020-03-02T01:30:18Z,42.805,6.029,13.2991,4.60003,2469.984,2020-3-02T03:30:54Z
2020-03-02T01:33:21Z,42.805,6.029,13.2983,4.59991,2469.993,2020-3-02T03:33:58Z
2020-03-02T01:36:25Z,42.805,6.029,13.3009,4.60001,2469.993,2020-3-02T03:37:01Z
2020-03-02T01:39:28Z,42.805,6.029,13.3013,4.59995,2470.007,2020-3-02T03:40:04Z
2020-03-02T01:42:31Z,42.805,6.029,13.3000,4.60025,2469.97,2020-3-02T03:43:07Z
2020-03-02T01:45:34Z,42.805,6.029,13.3005,4.60021,2469.947,2020-3-02T03:46:10Z
2020-03-02T01:48:38Z,42.805,6.029,13.3006,4.60069,2470.017,2020-3-02T03:49:14Z
2020-03-02T01:51:41Z,42.805,6.029,13.3020,4.60016,2469.993,2020-3-02T03:52:17Z
2020-03-02T01:54:44Z,42.805,6.029,13.2992,4.60011,2470.007,2020-3-02T03:55:20Z
2020-03-02T01:57:47Z,42.805,6.029,13.3016,4.60009,2470.007,2020-3-02T03:58:23Z
2020-03-02T02:00:50Z,42.805,6.029,13.2993,4.60044,2469.993,2020-3-02T04:01:27Z
2020-03-02T02:03:54Z,42.805,6.029,13.3003,4.60034,2470.007,2020-3-02T04:04:30Z
2020-03-02T02:06:57Z,42.805,6.029,13.2990,4.60049,2469.97,2020-3-02T04:07:33Z
2020-03-02T02:10:00Z,42.805,6.029,13.3014,4.60028,2470.017,2020-3-02T04:10:36Z
2020-03-02T02:13:03Z,42.805,6.029,13.3000,4.60058,2470.007,2020-3-02T04:13:39Z
2020-03-02T02:16:06Z,42.805,6.029,13.2996,4.60049,2470.017,2020-3-02T04:16:43Z
2020-03-02T02:19:10Z,42.805,6.029,13.3014,4.60057,2470.017,2020-3-02T04:19:46Z
2020-03-02T02:22:13Z,42.805,6.029,13.3012,4.60029,2469.97,2020-3-02T04:22:49Z
2020-03-02T02:25:16Z,42.805,6.029,13.3001,4.60036,2470.007,2020-3-02T04:25:52Z
2020-03-02T02:28:19Z,42.805,6.029,13.2988,4.60040,2469.993,2020-3-02T04:28:55Z
2020-03-02T02:31:22Z,42.805,6.029,13.2999,4.60052,2470.007,2020-3-02T04:31:58Z
2020-03-02T02:34:26Z,42.805,6.029,13.2988,4.60026,2469.984,2020-3-02T04:35:02Z
2020-03-02T02:37:29Z,42.805,6.029,13.2984,4.60009,2469.993,2020-3-02T04:38:05Z
2020-03-02T02:40:32Z,42.805,6.029,13.2990,4.60049,2469.984,2020-3-02T04:41:08Z
2020-03-02T02:43:35Z,42.805,6.029,13.2985,4.60028,2469.993,2020-3-02T04:44:11Z
2020-03-02T02:46:38Z,42.805,6.029,13.2993,4.60041,2469.993,2020-3-02T04:47:14Z
2020-03-02T02:49:42Z,42.805,6.029,13.2983,4.60029,2470.007,2020-3-02T04:50:18Z
2020-03-02T02:52:45Z,42.805,6.029,13.3012,4.60016,2469.993,2020-3-02T04:53:21Z
2020-03-02T02:55:48Z,42.805,6.029,13.2987,4.60058,2470.03,2020-3-02T04:56:24Z
2020-03-02T02:58:51Z,42.805,6.029,13.2995,4.59999,2469.97,2020-3-02T04:59:27Z
2020-03-02T03:01:54Z,42.805,6.029,13.2995,4.60021,2470.007,2020-3-02T05:02:30Z
2020-03-02T03:04:57Z,42.805,6.029,13.2985,4.60038,2469.97,2020-3-02T05:05:34Z
2020-03-02T03:08:01Z,42.805,6.029,13.2992,4.60013,2469.993,2020-3-02T05:08:37Z
2020-03-02T03:11:04Z,42.805,6.029,13.2998,4.60033,2469.97,2020-3-02T05:11:40Z
2020-03-02T03:14:07Z,42.805,6.029,13.2995,4.60040,2469.993,2020-3-02T05:14:43Z
2020-03-02T03:17:10Z,42.805,6.029,13.3001,4.60039,2470.007,2020-3-02T05:17:46Z
2020-03-02T03:20:14Z,42.805,6.029,13.2991,4.60024,2469.993,2020-3-02T05:20:50Z
2020-03-02T03:23:17Z,42.805,6.029,13.2993,4.60033,2469.984,2020-3-02T05:23:53Z
2020-03-02T03:26:20Z,42.805,6.029,13.2988,4.60069,2469.97,2020-3-02T05:26:56Z
2020-03-02T03:29:23Z,42.805,6.029,13.2991,4.60036,2469.97,2020-3-02T05:29:59Z
2020-03-02T03:32:26Z,42.805,6.029,13.2983,4.60079,2469.993,2020-3-02T05:33:02Z
2020-03-02T03:35:29Z,42.805,6.029,13.2983,4.60056,2469.984,2020-3-02T05:36:06Z
2020-03-02T03:38:33Z,42.805,6.029,13.2986,4.60049,2470.007,2020-3-02T05:39:09Z
2020-03-02T03:41:36Z,42.805,6.029,13.2991,4.60061,2469.984,2020-3-02T05:42:12Z
2020-03-02T03:44:39Z,42.805,6.029,13.3009,4.60069,2469.993,2020-3-02T05:45:15Z
2020-03-02T03:47:42Z,42.805,6.029,13.3003,4.60049,2469.97,2020-3-02T05:48:18Z
2020-03-02T03:50:45Z,42.805,6.029,13.3001,4.60049,2469.993,2020-3-02T05:51:22Z
2020-03-02T03:53:49Z,42.805,6.029,13.3000,4.60042,2469.96,2020-3-02T05:54:25Z
2020-03-02T03:56:52Z,42.805,6.029,13.3004,4.60003,2469.984,2020-3-02T05:57:28Z
2020-03-02T03:59:55Z,42.805,6.029,13.3004,4.60033,2469.984,2020-3-02T06:00:31Z
2020-03-02T04:02:58Z,42.805,6.029,13.2993,4.60023,2469.993,2020-3-02T06:03:35Z
2020-03-02T04:06:02Z,42.805,6.029,13.3001,4.59997,2469.97,2020-3-02T06:06:38Z
2020-03-02T04:09:05Z,42.805,6.029,13.2999,4.60009,2470.007,2020-3-02T06:09:41Z
2020-03-02T04:12:08Z,42.805,6.029,13.3000,4.59996,2469.984,2020-3-02T06:12:44Z
2020-03-02T04:15:11Z,42.805,6.029,13.2995,4.60051,2469.97,2020-3-02T06:15:47Z
2020-03-02T04:18:14Z,42.805,6.029,13.2995,4.60030,2469.984,2020-3-02T06:18:50Z
2020-03-02T04:21:17Z,42.805,6.029,13.3001,4.60024,2469.97,2020-3-02T06:21:54Z
2020-03-02T04:24:21Z,42.805,6.029,13.3006,4.60044,2469.97,2020-3-02T06:24:57Z
2020-03-02T04:27:24Z,42.805,6.029,13.3001,4.60024,2469.993,2020-3-02T06:28:00Z
2020-03-02T04:30:27Z,42.805,6.029,13.3004,4.60015,2469.97,2020-3-02T06:31:03Z
2020-03-02T04:33:30Z,42.805,6.029,13.2991,4.60041,2469.96,2020-3-02T06:34:06Z
2020-03-02T04:36:33Z,42.805,6.029,13.2985,4.60019,2469.97,2020-3-02T06:37:10Z
2020-03-02T04:39:37Z,42.805,6.029,13.2982,4.60003,2469.97,2020-3-02T06:40:13Z
2020-03-02T04:42:40Z,42.805,6.029,13.2984,4.60004,2469.97,2020-3-02T06:43:16Z
2020-03-02T04:45:43Z,42.805,6.029,13.2994,4.59996,2469.97,2020-3-02T06:46:19Z
2020-03-02T04:48:46Z,42.805,6.029,13.2967,4.59974,2469.984,2020-3-02T06:49:22Z
2020-03-02T04:51:49Z,42.805,6.029,13.2982,4.59996,2469.937,2020-3-02T06:52:25Z
2020-03-02T04:54:53Z,42.805,6.029,13.2987,4.60019,2469.947,2020-3-02T06:55:29Z
2020-03-02T04:57:56Z,42.805,6.029,13.2993,4.60002,2469.947,2020-3-02T06:58:32Z
2020-03-02T05:00:59Z,42.805,6.029,13.2971,4.59973,2469.947,2020-3-02T07:01:35Z
2020-03-02T05:04:02Z,42.805,6.029,13.2982,4.59975,2469.984,2020-3-02T07:04:38Z
2020-03-02T05:07:05Z,42.805,6.029,13.3003,4.59993,2469.947,2020-3-02T07:07:41Z
2020-03-02T05:10:08Z,42.805,6.029,13.3020,4.60010,2469.947,2020-3-02T07:10:45Z
2020-03-02T05:13:12Z,42.805,6.029,13.2969,4.59971,2469.9,2020-3-02T07:13:48Z
2020-03-02T05:16:15Z,42.805,6.029,13.2968,4.59975,2469.947,2020-3-02T07:16:51Z
2020-03-02T05:19:18Z,42.805,6.029,13.2991,4.59991,2469.97,2020-3-02T07:19:54Z
2020-03-02T05:22:22Z,42.805,6.029,13.3033,4.59995,2469.947,2020-3-02T07:22:58Z
2020-03-02T05:25:25Z,42.805,6.029,13.2982,4.59981,2469.937,2020-3-02T07:26:01Z
2020-03-02T05:28:28Z,42.805,6.029,13.2975,4.59996,2469.947,2020-3-02T07:29:04Z
2020-03-02T05:31:31Z,42.805,6.029,13.3006,4.59988,2469.96,2020-3-02T07:32:07Z
2020-03-02T05:34:34Z,42.805,6.029,13.2979,4.59979,2469.96,2020-3-02T07:35:10Z
2020-03-02T05:37:37Z,42.805,6.029,13.2973,4.59967,2469.97,2020-3-02T07:38:14Z
2020-03-02T05:40:41Z,42.805,6.029,13.2968,4.59973,2469.97,2020-3-02T07:41:17Z
2020-03-02T05:43:44Z,42.805,6.029,13.2976,4.59986,2469.947,2020-3-02T07:44:20Z
2020-03-02T05:46:47Z,42.805,6.029,13.2970,4.59968,2469.937,2020-3-02T07:47:23Z
2020-03-02T05:49:50Z,42.805,6.029,13.2989,4.59967,2469.947,2020-3-02T07:50:26Z
2020-03-02T05:52:53Z,42.805,6.029,13.2967,4.59970,2469.937,2020-3-02T07:53:30Z
2020-03-02T05:55:57Z,42.805,6.029,13.2966,4.59971,2469.984,2020-3-02T07:56:33Z
2020-03-02T05:59:00Z,42.805,6.029,13.2966,4.59968,2469.937,2020-3-02T07:59:36Z
2020-03-02T06:02:03Z,42.805,6.029,13.2965,4.59969,2469.97,2020-3-02T08:02:39Z
2020-03-02T06:05:06Z,42.805,6.029,13.2972,4.59983,2469.96,2020-3-02T08:05:42Z
2020-03-02T06:08:10Z,42.805,6.029,13.2977,4.59979,2469.96,2020-3-02T08:08:46Z
2020-03-02T06:11:13Z,42.805,6.029,13.2971,4.59976,2469.923,2020-3-02T08:11:49Z
2020-03-02T06:14:16Z,42.805,6.029,13.2969,4.59973,2469.923,2020-3-02T08:14:52Z
2020-03-02T06:17:19Z,42.805,6.029,13.2970,4.59973,2469.947,2020-3-02T08:17:55Z
2020-03-02T06:20:22Z,42.805,6.029,13.2962,4.59970,2469.947,2020-3-02T08:20:59Z
2020-03-02T06:23:26Z,42.805,6.029,13.2967,4.59967,2469.984,2020-3-02T08:24:02Z
2020-03-02T06:26:29Z,42.805,6.029,13.2967,4.59967,2469.96,2020-3-02T08:27:05Z
2020-03-02T06:29:32Z,42.805,6.029,13.2984,4.60004,2469.947,2020-3-02T08:30:08Z
2020-03-02T06:32:35Z,42.805,6.029,13.2969,4.59983,2469.96,2020-3-02T08:33:11Z
2020-03-02T06:35:38Z,42.805,6.029,13.2968,4.59969,2469.97,2020-3-02T08:36:15Z
2020-03-02T06:38:42Z,42.805,6.029,13.2965,4.59966,2469.97,2020-3-02T08:39:18Z
2020-03-02T06:41:45Z,42.805,6.029,13.2968,4.59968,2469.97,2020-3-02T08:42:21Z
2020-03-02T06:44:48Z,42.805,6.029,13.2975,4.59978,2469.97,2020-3-02T08:45:24Z
2020-03-02T06:47:51Z,42.805,6.029,13.2976,4.59980,2469.96,2020-3-02T08:48:27Z
2020-03-02T06:50:55Z,42.805,6.029,13.3000,4.60016,2469.947,2020-3-02T08:51:31Z
2020-03-02T06:53:58Z,42.805,6.029,13.3000,4.59994,2469.947,2020-3-02T08:54:34Z
2020-03-02T06:57:01Z,42.805,6.029,13.2991,4.60016,2469.947,2020-3-02T08:57:38Z
2020-03-02T07:00:05Z,42.805,6.029,13.2989,4.60008,2469.947,2020-3-02T09:00:41Z
2020-03-02T07:03:08Z,42.805,6.029,13.2991,4.60026,2469.984,2020-3-02T09:03:44Z
2020-03-02T07:06:11Z,42.805,6.029,13.2998,4.60020,2469.923,2020-3-02T09:06:47Z
2020-03-02T07:09:14Z,42.805,6.029,13.2995,4.59996,2469.97,2020-3-02T09:09:50Z
2020-03-02T07:12:17Z,42.805,6.029,13.2983,4.60017,2469.97,2020-3-02T09:12:54Z
2020-03-02T07:15:21Z,42.805,6.029,13.2991,4.60003,2469.984,2020-3-02T09:15:57Z
2020-03-02T07:18:24Z,42.805,6.029,13.2984,4.59994,2469.923,2020-3-02T09:19:00Z
2020-03-02T07:21:27Z,42.805,6.029,13.2984,4.60036,2469.947,2020-3-02T09:22:03Z
2020-03-02T07:24:31Z,42.805,6.029,13.2993,4.60006,2469.947,2020-3-02T09:25:07Z
2020-03-02T07:27:34Z,42.805,6.029,13.2986,4.60042,2469.96,2020-3-02T09:28:10Z
2020-03-02T07:30:37Z,42.805,6.029,13.2988,4.60033,2469.947,2020-3-02T09:31:13Z
2020-03-02T07:33:40Z,42.805,6.029,13.2991,4.60036,2469.984,2020-3-02T09:34:16Z
2020-03-02T07:36:43Z,42.805,6.029,13.3010,4.60035,2469.97,2020-3-02T09:37:19Z
2020-03-02T07:39:46Z,42.805,6.029,13.2968,4.59971,2469.97,2020-3-02T09:40:23Z
2020-03-02T07:42:50Z,42.805,6.029,13.2985,4.59976,2469.997,2020-3-02T09:43:26Z
2020-03-02T07:45:53Z,42.805,6.029,13.2981,4.59995,2469.984,2020-3-02T09:46:29Z
2020-03-02T07:48:56Z,42.805,6.029,13.2990,4.59991,2469.947,2020-3-02T09:49:32Z
2020-03-02T07:51:59Z,42.805,6.029,13.2984,4.59994,2470.007,2020-3-02T09:52:35Z
2020-03-02T07:55:02Z,42.805,6.029,13.2986,4.60027,2469.96,2020-3-02T09:55:39Z
2020-03-02T07:58:06Z,42.805,6.029,13.3004,4.60003,2469.947,2020-3-02T09:58:42Z
2020-03-02T08:01:09Z,42.805,6.029,13.2976,4.60013,2469.97,2020-3-02T10:01:45Z
2020-03-02T08:04:12Z,42.805,6.029,13.2987,4.60024,2469.993,2020-3-02T10:04:48Z
2020-03-02T08:07:15Z,42.805,6.029,13.2990,4.60016,2469.993,2020-3-02T10:07:51Z
2020-03-02T08:10:19Z,42.805,6.029,13.2990,4.60004,2469.984,2020-3-02T10:10:55Z
2020-03-02T08:13:22Z,42.805,6.029,13.2980,4.60020,2470.007,2020-3-02T10:13:58Z
2020-03-02T08:16:25Z,42.805,6.029,13.3007,4.59994,2469.97,2020-3-02T10:17:01Z
2020-03-02T08:19:28Z,42.805,6.029,13.2979,4.60009,2470.03,2020-3-02T10:20:04Z
2020-03-02T08:22:31Z,42.805,6.029,13.2981,4.60025,2470.007,2020-3-02T10:23:08Z
2020-03-02T08:25:35Z,42.805,6.029,13.2990,4.60004,2469.984,2020-3-02T10:26:11Z
2020-03-02T08:28:38Z,42.805,6.029,13.2982,4.60019,2470.007,2020-3-02T10:29:14Z
2020-03-02T08:31:41Z,42.805,6.029,13.2987,4.60032,2469.97,2020-3-02T10:32:17Z
2020-03-02T08:34:44Z,42.805,6.029,13.2981,4.60014,2469.993,2020-3-02T10:35:20Z
2020-03-02T08:37:48Z,42.805,6.029,13.2978,4.60010,2470.03,2020-3-02T10:38:24Z
2020-03-02T08:40:51Z,42.805,6.029,13.2983,4.60022,2469.984,2020-3-02T10:41:27Z
2020-03-02T08:43:54Z,42.805,6.029,13.2984,4.60033,2469.956,2020-3-02T10:44:30Z
2020-03-02T08:46:57Z,42.805,6.029,13.2987,4.60005,2469.993,2020-3-02T10:47:33Z
2020-03-02T08:50:00Z,42.805,6.029,13.2979,4.60009,2469.993,2020-3-02T10:50:37Z
2020-03-02T08:53:04Z,42.805,6.029,13.2986,4.60029,2470.03,2020-3-02T10:53:40Z
2020-03-02T08:56:07Z,42.805,6.029,13.2985,4.60027,2470.03,2020-3-02T10:56:43Z
2020-03-02T08:59:10Z,42.805,6.029,13.2989,4.60036,2469.993,2020-3-02T10:59:46Z
2020-03-02T09:02:13Z,42.805,6.029,13.2979,4.60022,2469.993,2020-3-02T11:02:49Z
2020-03-02T09:05:16Z,42.805,6.029,13.2982,4.60033,2470.044,2020-3-02T11:05:53Z
2020-03-02T09:08:20Z,42.805,6.029,13.2984,4.60031,2470.017,2020-3-02T11:08:56Z
2020-03-02T09:11:23Z,42.805,6.029,13.2982,4.60052,2469.993,2020-3-02T11:11:59Z
2020-03-02T09:14:26Z,42.805,6.029,13.2984,4.60039,2470.017,2020-3-02T11:15:02Z
2020-03-02T09:17:29Z,42.805,6.029,13.2977,4.60011,2469.993,2020-3-02T11:18:05Z
2020-03-02T09:20:33Z,42.805,6.029,13.2979,4.60033,2470.007,2020-3-02T11:21:09Z
2020-03-02T09:23:36Z,42.805,6.029,13.2976,4.60035,2470.03,2020-3-02T11:24:12Z
2020-03-02T09:26:39Z,42.805,6.029,13.2982,4.60027,2470.053,2020-3-02T11:27:15Z
2020-03-02T09:29:42Z,42.805,6.029,13.2984,4.60033,2470.03,2020-3-02T11:30:18Z
2020-03-02T09:32:45Z,42.805,6.029,13.2981,4.60062,2469.993,2020-3-02T11:33:22Z
2020-03-02T09:35:49Z,42.805,6.029,13.2977,4.60036,2470.03,2020-3-02T11:36:25Z
2020-03-02T09:38:52Z,42.805,6.029,13.2976,4.60041,2470.017,2020-3-02T11:39:28Z
2020-03-02T09:41:55Z,42.805,6.029,13.2986,4.60044,2470.03,2020-3-02T11:42:31Z
2020-03-02T09:44:58Z,42.805,6.029,13.2990,4.60021,2470.063,2020-3-02T11:45:34Z
2020-03-02T09:48:02Z,42.805,6.029,13.2983,4.60029,2470.04,2020-3-02T11:48:38Z
2020-03-02T09:51:05Z,42.805,6.029,13.2976,4.60031,2469.993,2020-3-02T11:51:41Z
2020-03-02T09:54:08Z,42.805,6.029,13.2990,4.60016,2470.04,2020-3-02T11:54:44Z
2020-03-02T09:57:11Z,42.805,6.029,13.2998,4.60031,2470.04,2020-3-02T11:57:47Z
2020-03-02T10:00:14Z,42.805,6.029,13.2981,4.60055,2470.04,2020-3-02T12:00:51Z
2020-03-02T10:03:18Z,42.805,6.029,13.2983,4.60045,2470.04,2020-3-02T12:03:54Z
2020-03-02T10:06:21Z,42.805,6.029,13.2982,4.60021,2470.04,2020-3-02T12:06:57Z
2020-03-02T10:09:24Z,42.805,6.029,13.2987,4.60022,2470.04,2020-3-02T12:10:00Z
2020-03-02T10:12:27Z,42.805,6.029,13.2985,4.60040,2470.063,2020-3-02T12:13:03Z
2020-03-02T10:15:30Z,42.805,6.029,13.2983,4.60055,2470.04,2020-3-02T12:16:07Z
2020-03-02T10:18:34Z,42.805,6.029,13.2976,4.60027,2470.063,2020-3-02T12:19:10Z
2020-03-02T10:21:37Z,42.805,6.029,13.2979,4.60026,2470.04,2020-3-02T12:22:13Z
2020-03-02T10:24:40Z,42.805,6.029,13.2983,4.60027,2470.04,2020-3-02T12:25:16Z
2020-03-02T10:27:43Z,42.805,6.029,13.2981,4.60017,2470.04,2020-3-02T12:28:19Z
2020-03-02T10:30:47Z,42.805,6.029,13.2982,4.60037,2470.04,2020-3-02T12:31:23Z
2020-03-02T10:33:50Z,42.805,6.029,13.3011,4.60021,2470.04,2020-3-02T12:34:26Z
2020-03-02T10:36:53Z,42.805,6.029,13.2979,4.60026,2470.04,2020-3-02T12:37:29Z
2020-03-02T10:39:56Z,42.805,6.029,13.3000,4.60072,2470.077,2020-3-02T12:40:32Z
2020-03-02T10:42:59Z,42.805,6.029,13.2976,4.60021,2470.077,2020-3-02T12:43:35Z
2020-03-02T10:46:03Z,42.805,6.029,13.2983,4.60019,2470.053,2020-3-02T12:46:39Z
2020-03-02T10:49:06Z,42.805,6.029,13.2990,4.60038,2470.063,2020-3-02T12:49:42Z
2020-03-02T10:52:09Z,42.805,6.029,13.2989,4.60020,2470.063,2020-3-02T12:52:45Z
2020-03-02T10:55:12Z,42.805,6.029,13.2986,4.60029,2470.04,2020-3-02T12:55:48Z
2020-03-02T10:58:15Z,42.805,6.029,13.2990,4.60039,2470.04,2020-3-02T12:58:52Z
2020-03-02T11:01:19Z,42.805,6.029,13.2994,4.60044,2470.077,2020-3-02T13:01:55Z
2020-03-02T11:04:22Z,42.805,6.029,13.2986,4.60036,2470.053,2020-3-02T13:04:58Z
2020-03-02T11:07:25Z,42.805,6.029,13.2985,4.60016,2470.063,2020-3-02T13:08:01Z
2020-03-02T11:10:28Z,42.805,6.029,13.2982,4.60039,2470.077,2020-3-02T13:11:04Z
2020-03-02T11:13:32Z,42.805,6.029,13.2996,4.60052,2470.1,2020-3-02T13:14:08Z
2020-03-02T11:16:35Z,42.805,6.029,13.2990,4.60029,2470.04,2020-3-02T13:17:11Z
2020-03-02T11:19:38Z,42.805,6.029,13.2991,4.60015,2470.077,2020-3-02T13:20:14Z
2020-03-02T11:22:41Z,42.805,6.029,13.2991,4.60046,2470.053,2020-3-02T13:23:17Z
2020-03-02T11:25:44Z,42.805,6.029,13.3014,4.60051,2470.063,2020-3-02T13:26:21Z
2020-03-02T11:28:48Z,42.805,6.029,13.2980,4.60038,2470.03,2020-3-02T13:29:24Z
2020-03-02T11:31:51Z,42.805,6.029,13.2984,4.60043,2470.1,2020-3-02T13:32:27Z
2020-03-02T11:34:54Z,42.805,6.029,13.2984,4.60041,2470.063,2020-3-02T13:35:30Z
2020-03-02T11:37:57Z,42.805,6.029,13.2983,4.60074,2470.063,2020-3-02T13:38:33Z
2020-03-02T11:41:00Z,42.805,6.029,13.2987,4.60017,2470.053,2020-3-02T13:41:37Z
2020-03-02T11:44:04Z,42.805,6.029,13.2978,4.60021,2470.077,2020-3-02T13:44:40Z
2020-03-02T11:47:07Z,42.805,6.029,13.2982,4.60016,2470.04,2020-3-02T13:47:43Z
2020-03-02T11:50:10Z,42.805,6.029,13.2977,4.60046,2470.04,2020-3-02T13:50:46Z
2020-03-02T11:53:13Z,42.805,6.029,13.2990,4.60039,2470.077,2020-3-02T13:53:49Z
2020-03-02T11:56:16Z,42.805,6.029,13.2992,4.60014,2470.077,2020-3-02T13:56:53Z
2020-03-02T11:59:20Z,42.805,6.029,13.2993,4.60045,2470.063,2020-3-02T13:59:56Z
2020-03-02T12:02:23Z,42.805,6.029,13.2986,4.60034,2470.087,2020-3-02T14:02:59Z
2020-03-02T12:05:26Z,42.805,6.029,13.2985,4.60041,2470.04,2020-3-02T14:06:02Z
2020-03-02T12:08:29Z,42.805,6.029,13.2995,4.59995,2470.053,2020-3-02T14:09:05Z
2020-03-02T12:11:32Z,42.805,6.029,13.2982,4.60035,2470.017,2020-3-02T14:12:09Z
2020-03-02T12:14:36Z,42.805,6.029,13.2992,4.60051,2470.053,2020-3-02T14:15:12Z
2020-03-02T12:17:39Z,42.805,6.029,13.2994,4.60055,2470.03,2020-3-02T14:18:15Z
2020-03-02T12:20:42Z,42.805,6.029,13.3000,4.60033,2470.04,2020-3-02T14:21:18Z
2020-03-02T12:23:45Z,42.805,6.029,13.3016,4.60035,2470.053,2020-3-02T14:24:21Z
2020-03-02T12:26:48Z,42.805,6.029,13.2997,4.60038,2470.053,2020-3-02T14:27:25Z
2020-03-02T12:29:52Z,42.805,6.029,13.2992,4.60023,2470.053,2020-3-02T14:30:28Z
2020-03-02T12:32:55Z,42.805,6.029,13.2993,4.60044,2470.017,2020-3-02T14:33:31Z
2020-03-02T12:35:58Z,42.805,6.029,13.2993,4.60077,2470.077,2020-3-02T14:36:34Z
2020-03-02T12:39:02Z,42.805,6.029,13.2992,4.60041,2470.063,2020-3-02T14:39:38Z
2020-03-02T12:42:05Z,42.805,6.029,13.3000,4.60018,2470.077,2020-3-02T14:42:42Z
2020-03-02T12:45:09Z,42.805,6.029,13.2998,4.60043,2470.03,2020-3-02T14:45:45Z
2020-03-02T12:48:12Z,42.805,6.029,13.2987,4.60036,2470.03,2020-3-02T14:48:48Z
2020-03-02T12:51:15Z,42.805,6.029,13.3004,4.60028,2470.04,2020-3-02T14:51:51Z
2020-03-02T12:54:18Z,42.805,6.029,13.3030,4.60044,2470.03,2020-3-02T14:54:54Z
2020-03-02T12:57:22Z,42.805,6.029,13.3006,4.60038,2470.03,2020-3-02T14:57:58Z
2020-03-02T13:00:25Z,42.805,6.029,13.3019,4.60043,2470.04,2020-3-02T15:01:01Z
2020-03-02T13:03:28Z,42.805,6.029,13.3028,4.60025,2470.017,2020-3-02T15:04:04Z
2020-03-02T13:06:31Z,42.805,6.029,13.3005,4.60034,2470.053,2020-3-02T15:07:07Z
2020-03-02T13:09:35Z,42.805,6.029,13.2993,4.60025,2470.053,2020-3-02T15:10:11Z
2020-03-02T13:12:38Z,42.805,6.029,13.3001,4.60033,2470.053,2020-3-02T15:13:14Z
2020-03-02T13:15:41Z,42.805,6.029,13.2989,4.60053,2470.077,2020-3-02T15:16:17Z
2020-03-02T13:18:44Z,42.805,6.029,13.2996,4.60034,2470.04,2020-3-02T15:19:20Z
2020-03-02T13:21:47Z,42.805,6.029,13.3003,4.60001,2470.017,2020-3-02T15:22:23Z
2020-03-02T13:24:51Z,42.805,6.029,13.2992,4.60031,2469.993,2020-3-02T15:25:27Z
2020-03-02T13:27:54Z,42.805,6.029,13.2996,4.60055,2470.017,2020-3-02T15:28:30Z
2020-03-02T13:30:57Z,42.805,6.029,13.3002,4.60026,2470.03,2020-3-02T15:31:33Z
2020-03-02T13:34:00Z,42.805,6.029,13.3008,4.60024,2470.04,2020-3-02T15:34:36Z
2020-03-02T13:37:03Z,42.805,6.029,13.2995,4.60019,2470.053,2020-3-02T15:37:40Z
2020-03-02T13:40:07Z,42.805,6.029,13.2991,4.60022,2470.04,2020-3-02T15:40:43Z
2020-03-02T13:43:10Z,42.805,6.029,13.2995,4.60014,2470.04,2020-3-02T15:43:46Z
2020-03-02T13:46:13Z,42.805,6.029,13.3008,4.60013,2470.03,2020-3-02T15:46:49Z
2020-03-02T13:49:16Z,42.805,6.029,13.2998,4.60025,2470.017,2020-3-02T15:49:53Z
2020-03-02T13:52:20Z,42.805,6.029,13.2987,4.60071,2470.063,2020-3-02T15:52:56Z
2020-03-02T13:55:23Z,42.805,6.029,13.2998,4.60042,2470.017,2020-3-02T15:55:59Z
2020-03-02T13:58:26Z,42.805,6.029,13.2981,4.60041,2470.04,2020-3-02T15:59:02Z
2020-03-02T14:01:29Z,42.805,6.029,13.3015,4.60069,2470.04,2020-3-02T16:02:05Z
2020-03-02T14:04:32Z,42.805,6.029,13.3006,4.60040,2470.017,2020-3-02T16:05:09Z
2020-03-02T14:07:36Z,42.805,6.029,13.2990,4.60081,2470.04,2020-3-02T16:08:12Z
2020-03-02T14:10:39Z,42.805,6.029,13.3009,4.60046,2470.017,2020-3-02T16:11:15Z
2020-03-02T14:13:42Z,42.805,6.029,13.3017,4.60024,2470.063,2020-3-02T16:14:18Z
2020-03-02T14:16:45Z,42.805,6.029,13.3039,4.60076,2470.053,2020-3-02T16:17:22Z
2020-03-02T14:19:49Z,42.805,6.029,13.3022,4.60011,2470.026,2020-3-02T16:20:25Z
2020-03-02T14:22:52Z,42.805,6.029,13.3021,4.60015,2470.017,2020-3-02T16:23:28Z
2020-03-02T14:25:55Z,42.805,6.029,13.2988,4.60064,2470.04,2020-3-02T16:26:31Z
2020-03-02T14:28:58Z,42.805,6.029,13.2996,4.60074,2470.04,2020-3-02T16:29:34Z
2020-03-02T14:32:01Z,42.805,6.029,13.2987,4.60080,2470.053,2020-3-02T16:32:38Z
2020-03-02T14:35:05Z,42.805,6.029,13.3000,4.60003,2470.04,2020-3-02T16:35:41Z
2020-03-02T14:38:08Z,42.805,6.029,13.3012,4.60034,2470.087,2020-3-02T16:38:44Z
2020-03-02T14:41:11Z,42.805,6.029,13.3030,4.60041,2470.03,2020-3-02T16:41:47Z
2020-03-02T14:44:14Z,42.805,6.029,13.3040,4.60000,2470.04,2020-3-02T16:44:50Z
2020-03-02T14:47:18Z,42.805,6.029,13.3026,4.60049,2470.03,2020-3-02T16:47:54Z
2020-03-02T14:50:21Z,42.805,6.029,13.2987,4.60036,2470.03,2020-3-02T16:50:57Z
2020-03-02T14:53:24Z,42.805,6.029,13.3006,4.60027,2470.03,2020-3-02T16:54:00Z
2020-03-02T14:56:27Z,42.805,6.029,13.3039,4.60053,2470.007,2020-3-02T16:57:03Z
2020-03-02T14:59:30Z,42.805,6.029,13.3036,4.60031,2470.03,2020-3-02T17:00:07Z
2020-03-02T15:02:34Z,42.805,6.029,13.3036,4.60065,2470.04,2020-3-02T17:03:10Z
2020-03-02T15:05:37Z,42.805,6.029,13.3011,4.60008,2470.03,2020-3-02T17:06:13Z
2020-03-02T15:08:40Z,42.805,6.029,13.3030,4.60014,2470.007,2020-3-02T17:09:16Z
2020-03-02T15:11:43Z,42.805,6.029,13.3021,4.60024,2470.03,2020-3-02T17:12:19Z
2020-03-02T15:14:46Z,42.805,6.029,13.2996,4.59991,2470.04,2020-3-02T17:15:23Z